Theta_e
308 308 308 307 308 307 308 308 307 306 307 308 308 308 307 307 307 307 307 307 307 306 306 305 305 305 305 305 305 305 305 305 305 306 306 306 306 306 307 307 308 309 309 310 310 310 310 309 310 310 310 311 310 310 309 309 308 311 319 319 312 310 310 309 308 304 305 306 302 304 305 305 306 303 302 302 302 302 302 302 302 303 303 303 303 303 303 302
308 308 307 308 307 307 308 307 307 307 307 308 308 308 308 308 307 307 307 307 307 307 306 306 306 306 305 305 305 306 305 305 305 305 306 305 306 306 306 306 308 309 309 310 310 309 310 309 310 310 310 310 309 309 309 309 308 311 318 320 313 312 308 305 306 301 303 305 302 303 304 304 306 303 302 304 302 301 302 301 301 303 303 303 303 302 303 302
308 308 308 308 308 307 307 307 307 307 307 308 308 308 308 308 308 308 308 307 307 307 306 306 307 307 307 307 307 307 308 307 305 305 305 305 305 306 305 306 307 308 309 309 309 309 310 310 310 310 310 309 309 309 308 308 307 305 315 322 313 308 305 302 303 302 303 304 303 303 303 303 304 303 303 303 301 300 301 302 301 302 303 302 302 302 302 302
308 308 308 308 308 307 307 307 308 307 307 308 308 308 308 308 309 308 308 307 307 307 306 306 307 308 308 307 307 307 308 308 305 304 305 305 305 305 305 306 306 308 308 308 309 309 310 310 311 310 310 309 308 309 307 307 306 304 312 319 309 303 304 303 303 303 303 303 304 304 303 304 303 304 303 302 303 303 301 302 302 302 302 302 301 301 302 301
308 308 308 308 308 307 308 308 308 308 308 309 309 309 308 309 309 309 309 307 307 306 306 306 306 307 307 306 306 306 309 309 305 304 305 305 305 305 306 306 306 307 308 309 309 310 310 309 311 310 309 309 309 310 307 305 306 305 305 307 304 301 303 304 303 303 303 303 304 303 304 305 303 303 303 302 306 306 303 303 303 302 301 301 301 301 301 300
308 308 308 308 308 308 308 308 308 309 309 309 308 307 307 307 308 309 309 308 307 306 306 306 306 307 307 307 307 307 309 309 305 304 305 305 305 305 306 306 306 307 308 309 309 309 309 309 311 310 308 308 308 310 308 305 307 308 304 301 302 302 303 304 303 304 303 302 303 303 304 304 302 303 303 302 305 305 303 303 302 301 301 301 301 301 301 301
307 308 308 307 307 307 307 307 308 308 308 308 306 305 305 306 307 307 309 308 306 307 307 306 307 307 307 307 306 306 307 306 305 305 305 305 305 306 306 307 306 307 308 309 309 309 308 310 310 308 309 308 307 307 307 305 306 310 307 302 303 303 303 304 303 304 303 303 304 303 303 303 303 304 302 302 303 304 303 303 302 301 301 300 300 300 300 300
307 308 308 307 307 307 307 307 307 307 308 307 306 305 305 306 307 308 308 307 306 307 307 307 307 307 307 308 307 306 306 305 305 305 305 305 305 306 307 307 306 306 307 308 308 309 308 309 310 308 309 309 308 307 306 306 305 308 306 302 302 303 303 304 304 304 303 302 302 303 302 301 302 302 301 302 304 303 302 302 301 301 301 300 300 300 300 300
307 308 308 307 307 307 307 307 307 307 307 307 306 304 306 307 307 308 307 307 306 306 306 306 307 307 307 308 308 306 306 305 305 305 305 305 306 306 307 306 306 307 307 308 308 308 309 309 310 309 308 308 308 306 306 307 306 305 304 302 302 302 303 303 303 303 302 302 302 303 302 300 300 300 301 302 303 303 302 301 301 301 301 300 300 300 300 300
308 308 308 307 307 307 307 308 308 307 307 307 306 305 305 306 307 307 306 306 306 306 306 306 306 307 307 308 308 307 306 305 305 305 305 305 305 306 306 306 307 308 307 308 307 308 309 309 310 309 308 308 307 305 305 307 307 304 303 303 302 302 302 303 303 302 302 302 301 303 303 300 299 300 303 302 302 302 301 301 301 301 300 300 301 300 300 299
308 308 308 308 308 308 307 307 307 307 307 307 306 305 305 305 306 306 306 306 306 306 306 306 306 306 307 306 307 306 306 305 305 305 305 305 305 305 306 306 308 308 308 308 307 308 308 309 309 308 310 308 307 306 305 305 305 303 303 303 302 301 301 302 302 302 302 302 301 302 301 299 299 300 303 302 302 302 301 301 301 300 300 300 300 300 300 299
308 308 308 308 308 307 307 306 306 306 306 307 306 306 305 305 305 306 306 306 306 306 306 306 306 306 307 306 306 306 306 306 306 305 305 305 305 306 306 308 308 308 308 308 308 309 308 309 308 309 309 307 308 307 307 306 304 303 305 306 306 306 304 301 301 301 301 302 301 301 302 302 301 300 302 301 301 302 300 300 300 300 300 300 300 300 299 299
309 309 308 308 307 306 306 305 305 305 305 305 305 305 305 305 305 305 306 306 306 305 306 307 306 307 307 306 306 306 306 306 306 306 306 305 305 307 308 308 308 308 308 308 308 309 309 309 308 309 308 307 307 306 307 305 304 306 304 306 310 311 310 302 300 301 300 301 300 302 306 308 305 301 301 301 300 301 300 300 300 300 300 300 300 299 299 299
308 309 308 307 306 305 306 305 305 305 305 305 305 305 305 305 305 305 306 306 305 306 307 307 307 307 306 306 306 306 306 306 306 306 306 305 306 308 308 307 307 307 308 307 308 308 309 309 308 309 307 307 306 305 309 306 307 310 303 307 309 308 314 305 299 301 301 301 300 302 306 307 306 302 300 300 299 299 299 300 300 299 299 299 299 299 299 298
308 308 308 306 305 306 306 306 306 306 305 305 305 305 305 305 305 305 305 306 306 306 307 307 307 307 306 306 306 306 306 306 306 306 306 306 306 308 307 306 307 307 308 307 308 309 309 309 309 308 306 307 306 308 314 310 311 311 305 313 311 305 316 311 299 300 302 301 299 302 306 305 304 302 300 300 299 298 298 299 299 299 299 299 299 299 298 298
307 308 307 306 306 307 307 307 307 306 306 305 306 306 305 306 305 305 305 306 306 307 307 307 307 307 307 307 306 306 306 306 306 305 305 305 305 306 306 306 307 308 308 307 308 308 309 309 307 307 306 307 310 315 317 313 315 313 306 312 312 305 312 310 302 298 300 301 300 301 305 306 303 299 299 299 298 298 297 297 299 299 299 299 299 298 298 298
307 308 307 307 307 307 307 307 307 307 306 306 306 307 307 306 305 306 305 306 308 308 308 308 308 307 307 307 306 306 306 306 307 306 305 305 305 306 306 308 308 307 307 307 308 307 308 308 305 306 306 306 310 317 317 316 319 313 306 309 310 307 307 309 308 300 298 301 302 302 302 303 302 298 298 299 298 297 295 296 298 298 299 299 298 298 298 298
307 307 307 307 307 307 307 307 307 307 307 308 308 308 309 308 306 306 306 306 307 307 308 308 307 308 308 306 306 306 306 306 307 306 306 305 306 307 307 308 308 308 308 307 306 307 306 305 305 309 310 309 314 320 318 318 317 310 307 310 310 308 306 308 310 303 300 303 303 303 302 301 301 299 298 298 298 296 295 297 297 298 298 298 298 298 298 298
306 307 307 306 307 307 307 307 307 307 307 309 308 307 310 310 307 306 306 306 307 308 309 308 307 309 308 306 306 306 306 306 307 307 306 306 306 306 307 309 309 309 308 307 307 306 305 306 307 310 312 310 311 316 317 312 309 307 306 308 309 309 308 307 309 303 299 302 303 302 302 301 300 300 298 297 297 295 295 296 295 296 296 296 297 298 298 298
306 306 306 306 307 306 307 307 307 307 307 308 307 307 310 311 309 307 306 306 306 307 307 306 306 307 307 306 306 306 306 306 307 307 307 307 307 307 309 308 309 310 307 308 308 302 305 313 312 313 316 310 306 308 309 306 305 305 305 306 307 307 307 307 307 302 296 301 307 303 302 301 299 300 298 296 296 293 293 293 293 294 295 296 297 298 298 298
306 305 305 306 306 306 307 307 307 307 307 308 307 308 310 310 310 308 306 306 306 306 306 306 305 305 306 306 306 306 306 306 307 308 307 307 308 308 308 308 311 312 305 302 304 303 309 315 310 312 313 306 305 305 303 304 305 305 306 307 307 307 308 306 303 301 297 300 307 304 303 302 300 301 298 295 295 294 293 293 294 295 295 296 297 298 299 299
306 306 306 306 306 307 307 307 307 307 307 308 309 309 309 309 309 309 307 306 306 306 306 306 305 306 305 305 306 306 306 306 306 308 308 307 308 309 308 310 313 311 306 304 307 311 315 312 306 304 301 299 303 304 304 306 306 306 305 306 308 308 308 306 302 302 300 300 305 304 301 301 300 301 298 294 294 295 295 295 296 296 295 296 298 299 299 299
307 307 307 307 308 308 308 308 307 307 307 308 309 309 308 308 308 308 308 307 307 307 306 306 306 306 306 306 306 306 305 305 306 307 308 308 308 308 306 311 316 313 310 314 314 312 312 308 303 297 297 303 306 305 307 307 306 307 306 307 311 307 305 308 305 303 303 300 301 302 300 300 300 302 301 294 293 295 295 295 296 295 296 297 298 299 298 299
308 308 308 308 308 309 309 308 307 308 307 307 308 308 307 308 308 308 309 308 307 307 306 306 306 305 306 306 305 307 306 305 306 306 307 308 307 307 305 306 314 313 309 312 314 312 307 302 298 296 300 306 305 304 306 306 306 308 307 308 312 307 302 305 304 300 302 301 299 300 303 305 304 307 308 298 291 293 293 294 295 295 296 297 297 298 299 300
308 308 308 308 308 308 308 309 308 307 307 307 307 307 307 307 307 307 309 310 310 310 307 306 307 306 305 306 306 306 306 305 306 305 306 307 306 308 306 303 308 309 306 306 311 312 305 298 298 301 304 305 304 305 304 303 306 309 309 306 306 305 301 302 302 300 305 306 300 300 307 313 310 310 311 303 296 296 293 292 294 296 296 296 297 299 300 301
307 307 307 307 308 308 307 309 308 307 308 308 307 307 307 307 308 308 311 316 316 312 308 305 306 306 305 306 306 305 306 307 305 305 306 306 306 307 306 305 304 305 306 305 306 308 303 298 299 304 307 306 305 305 302 303 307 308 306 303 301 303 302 302 301 301 307 308 300 299 305 310 308 307 308 303 301 301 297 293 293 294 296 296 298 301 301 301
307 307 307 307 308 307 307 308 307 307 308 308 308 308 306 307 308 306 311 316 313 308 308 306 306 307 306 306 306 306 307 307 305 305 305 305 307 306 307 308 305 304 303 303 307 307 302 301 301 304 306 305 304 304 303 304 309 308 303 300 302 302 301 302 300 301 304 303 300 299 301 305 307 305 302 298 302 305 303 301 297 294 298 300 300 302 302 302
307 307 307 308 307 307 307 307 307 307 307 307 308 308 307 308 308 308 312 312 307 306 308 306 305 306 307 306 305 306 306 306 306 307 304 304 306 306 307 308 308 309 300 302 313 309 301 304 304 304 305 304 304 304 303 303 305 306 301 299 301 300 300 300 299 302 300 300 305 303 298 304 309 306 302 297 301 305 306 309 303 297 301 303 302 303 302 302
307 307 308 307 307 307 307 306 307 307 307 308 307 308 308 306 308 311 312 308 305 307 307 305 307 306 306 306 305 305 305 305 306 306 304 305 305 305 307 304 304 306 299 301 315 309 300 302 302 303 305 305 304 301 301 303 303 301 298 299 300 299 300 300 300 303 301 302 311 306 298 303 309 308 306 301 303 308 311 313 305 298 302 304 302 303 303 302
307 308 307 307 308 307 307 307 306 307 307 306 307 309 307 308 317 318 312 308 306 306 306 306 306 305 305 307 306 304 303 304 304 305 304 304 304 304 304 303 301 305 306 305 310 306 299 300 300 301 302 302 301 298 297 300 299 297 299 302 302 300 299 299 301 302 302 308 312 304 298 302 308 308 309 307 309 314 314 312 306 300 302 304 303 303 303 302
307 307 306 308 307 306 307 306 307 308 306 306 307 309 307 311 322 321 308 307 307 305 307 307 304 306 309 308 306 306 305 303 301 305 307 305 307 306 304 307 305 308 319 317 309 304 301 302 303 300 299 299 300 299 297 295 296 298 303 304 305 305 301 302 306 303 305 315 311 301 299 302 305 308 310 309 309 310 308 309 309 303 302 303 303 303 303 302
307 307 307 307 305 306 306 305 308 307 305 308 307 309 314 313 315 317 310 308 308 307 308 306 303 306 309 307 305 306 306 304 301 305 308 306 310 308 304 309 308 309 321 319 310 308 307 305 302 299 299 299 300 303 301 298 300 303 305 307 309 312 309 310 313 308 310 313 303 299 301 301 303 305 305 306 306 305 301 302 304 301 300 303 303 303 303 302
307 307 306 306 305 306 305 305 307 305 306 309 306 310 320 317 313 313 313 310 306 305 305 304 303 305 308 308 306 303 303 304 303 303 303 304 307 305 300 300 301 305 311 309 307 313 313 307 301 301 302 299 299 304 305 303 304 303 304 309 312 311 312 315 314 307 309 309 299 297 300 302 306 307 306 306 304 302 299 298 299 299 300 302 302 302 303 302
307 307 305 306 305 305 306 305 305 306 307 307 308 312 313 315 313 309 311 313 306 303 304 305 306 306 306 308 305 302 304 304 302 303 305 306 308 307 303 300 298 304 310 307 305 308 312 310 304 302 302 299 298 301 302 303 303 301 300 303 308 310 310 312 313 310 310 308 301 297 301 307 311 310 306 303 300 299 299 299 299 299 300 300 301 302 303 302
307 306 305 306 305 305 306 305 305 307 306 308 314 315 312 315 315 309 312 313 306 305 306 304 306 308 309 310 304 300 303 304 302 304 306 306 307 308 307 303 300 303 309 310 307 304 307 309 303 298 297 297 299 297 296 301 303 300 298 301 306 309 309 307 307 305 303 304 303 301 304 308 307 306 303 298 298 297 296 296 297 299 301 300 301 303 302 302
306 305 306 306 305 306 305 305 306 306 306 312 315 315 319 318 310 307 309 306 304 305 306 307 309 309 311 311 308 303 301 302 303 305 306 305 306 306 306 304 301 300 303 306 309 306 306 308 302 298 297 295 297 297 295 300 304 300 299 305 303 300 305 307 302 298 297 303 307 303 305 306 304 308 308 304 305 304 300 297 296 299 302 300 302 303 302 302
305 305 306 307 305 306 305 305 306 305 306 311 313 315 319 313 304 306 305 301 303 303 303 309 309 307 310 310 310 309 302 302 305 305 306 306 305 305 306 304 298 298 299 300 304 304 304 309 304 299 300 297 295 296 295 295 300 302 303 304 299 296 302 305 302 303 304 307 307 303 305 307 306 310 311 309 310 311 310 303 297 299 302 301 302 302 301 301
305 305 307 307 305 305 306 305 305 306 307 308 313 315 312 306 302 303 302 300 303 303 303 308 305 304 309 309 308 306 302 305 309 307 307 307 304 303 305 305 299 296 296 297 302 303 302 308 306 298 299 299 294 297 300 296 295 299 300 299 298 301 307 304 303 307 308 306 308 304 302 302 305 308 310 310 309 309 308 305 303 302 301 300 301 301 301 301
305 306 306 307 305 305 306 305 304 307 307 310 317 314 306 305 302 300 302 301 301 303 305 306 304 303 306 307 307 305 302 306 308 306 306 307 304 302 302 303 301 298 296 296 302 303 301 305 308 299 296 298 297 300 305 302 296 296 297 297 298 302 306 304 302 305 306 306 308 307 304 304 305 308 309 308 307 305 305 306 305 301 298 300 300 300 300 300
306 306 307 305 305 306 306 305 306 309 308 310 317 313 304 305 303 299 302 302 300 303 305 305 304 305 306 306 305 303 302 304 305 305 306 305 305 303 300 300 301 300 297 296 299 302 302 303 307 304 298 299 302 302 304 305 302 300 300 301 300 299 300 301 299 300 305 307 307 307 307 306 305 305 306 305 306 306 305 304 302 297 298 300 299 299 300 299
306 308 309 306 304 306 306 306 306 307 310 309 309 308 305 305 303 299 301 301 300 301 302 303 304 305 306 305 302 301 303 306 305 305 306 305 305 304 300 298 299 298 298 299 300 302 302 302 306 307 303 304 305 300 296 300 302 303 304 305 304 302 302 303 302 300 300 302 306 306 305 304 304 306 307 305 305 303 300 298 297 296 297 299 299 299 300 299
306 308 308 306 305 305 307 307 300 299 309 310 305 304 305 303 301 299 300 300 300 299 299 301 303 305 306 304 302 303 304 306 305 305 306 305 304 304 300 297 297 297 299 302 301 299 299 301 304 305 304 303 301 294 291 293 296 299 301 301 302 303 304 306 306 304 300 298 299 300 301 303 303 304 305 303 300 298 297 295 295 296 297 298 299 299 298 298
305 306 306 306 305 304 306 307 302 303 310 306 300 301 302 302 300 300 300 300 301 300 300 303 303 303 304 302 302 304 303 305 307 306 306 306 303 301 298 297 297 297 299 301 300 297 298 301 303 305 306 303 298 293 291 291 294 297 299 298 299 301 303 304 303 302 302 300 299 300 301 303 301 300 298 297 296 296 298 297 297 297 298 298 298 298 297 297
304 306 306 306 306 303 306 308 306 312 314 304 300 301 301 300 300 301 302 302 301 301 303 306 303 301 301 300 302 304 302 304 306 303 303 306 304 298 296 297 297 296 298 300 299 298 300 304 304 305 308 307 305 305 301 297 297 298 300 298 297 299 300 299 297 296 299 302 302 302 302 302 302 301 298 298 298 297 298 298 298 298 298 297 297 297 297 297
305 306 306 306 306 303 306 308 307 313 317 309 304 303 302 302 300 300 302 302 300 299 302 304 300 299 301 300 302 304 302 302 304 302 300 303 301 296 294 296 296 296 297 297 296 296 300 304 303 303 307 306 308 310 307 305 302 299 300 298 295 297 298 300 300 299 300 300 299 302 303 301 301 302 300 299 299 298 298 298 298 298 297 297 297 297 297 297
305 306 306 306 306 303 305 305 304 310 316 312 305 303 303 304 300 299 300 301 300 298 299 301 299 300 302 301 303 306 303 301 301 301 302 304 302 296 293 296 295 295 297 296 295 297 299 300 300 303 306 305 305 305 301 301 301 300 301 300 298 297 296 299 302 301 301 300 299 300 301 299 299 299 299 299 299 298 297 296 297 297 297 297 296 296 296 296
305 306 306 306 306 304 304 303 302 303 305 305 303 302 304 305 301 299 300 300 300 298 298 299 299 300 303 303 304 306 304 301 301 301 302 303 302 296 292 294 295 295 296 295 295 298 301 301 300 301 303 302 302 301 298 298 298 298 299 299 299 298 296 297 299 300 301 301 300 299 299 299 299 298 299 299 298 297 296 295 296 296 296 296 296 296 296 295
306 305 304 304 305 305 304 303 302 300 299 301 302 301 303 306 304 303 302 300 299 299 299 300 300 302 304 303 303 305 305 303 303 303 302 302 301 299 296 294 293 294 295 294 294 296 300 302 299 298 301 301 299 297 297 297 297 297 298 298 298 298 297 297 298 298 299 299 299 299 300 299 298 298 298 297 296 296 295 295 295 295 295 295 295 295 295 295
304 304 303 303 304 303 302 302 301 300 300 301 303 302 304 309 308 303 300 300 301 299 298 302 304 304 305 304 302 305 307 305 303 304 304 302 301 301 302 299 295 293 293 294 294 293 298 304 300 296 299 300 299 298 297 297 298 297 298 298 297 297 297 296 296 296 296 296 297 297 297 296 296 296 296 295 295 295 295 295 295 295 295 295 294 294 294 294
304 305 304 303 302 301 301 301 300 302 301 300 302 302 302 308 310 303 299 301 303 302 298 302 306 304 302 302 302 305 307 304 301 301 302 302 301 303 304 302 300 296 293 295 295 293 296 302 299 296 299 301 301 301 299 298 298 297 297 297 297 296 297 295 295 295 295 296 296 295 295 296 295 295 295 295 295 295 294 295 294 294 294 294 294 294 293 293
305 306 304 303 303 300 301 300 298 303 306 303 303 303 303 308 308 302 301 300 300 303 301 301 304 303 300 301 303 305 302 299 300 300 299 300 301 302 300 298 300 302 298 295 295 295 296 299 299 298 301 302 301 301 300 297 297 297 299 301 301 301 301 300 298 297 297 298 297 296 297 298 296 295 295 294 294 294 293 294 294 294 294 294 294 293 293 293
304 305 304 304 304 301 300 300 298 301 306 304 301 301 303 304 300 299 302 301 298 301 302 298 299 302 303 304 305 304 300 298 299 299 298 298 298 298 297 296 297 303 302 297 295 295 295 298 300 298 301 304 302 299 298 297 301 303 301 301 302 303 303 301 300 298 296 296 297 298 298 297 296 294 294 294 293 293 293 293 293 293 293 293 293 293 292 292
Wind_Speed
4 4 4 4 4 5 5 4 3 3 4 6 6 6 6 6 5 5 4 3 4 4 4 6 7 7 8 9 10 10 9 7 5 3 4 6 7 5 3 3 3 3 4 5 7 5 2 2 3 5 6 7 9 8 8 6 6 5 4 4 3 4 4 5 7 7 3 3 6 9 9 6 5 7 9 7 7 9 9 8 7 8 8 8 9 8 11 11
3 3 3 3 3 4 4 4 4 3 4 5 5 5 5 5 4 3 2 1 1 2 3 4 5 7 7 8 8 7 7 7 5 5 8 8 6 4 3 2 2 2 4 5 5 3 2 3 5 5 6 8 8 6 5 6 6 4 3 4 3 5 4 4 7 9 3 3 7 9 11 9 7 11 13 6 4 7 6 6 7 7 8 9 10 10 12 12
3 3 3 3 3 3 3 4 4 4 4 4 4 4 4 3 2 2 1 1 1 2 2 2 3 5 5 5 4 4 4 5 4 6 9 8 6 5 4 2 1 2 4 4 3 2 2 4 5 5 7 8 8 7 6 6 5 3 4 3 4 6 3 2 6 9 6 5 8 9 11 8 8 13 11 7 6 4 5 8 8 9 12 11 12 13 14 14
3 2 2 3 3 2 2 4 4 3 3 3 3 3 3 2 2 1 1 1 2 2 3 2 1 2 4 7 7 6 5 5 6 8 8 7 7 7 5 2 0 2 4 4 2 1 2 3 3 5 8 7 7 7 6 7 4 2 3 2 6 7 3 4 7 7 6 8 8 10 9 5 9 13 9 8 6 4 11 15 11 9 13 13 13 15 17 16
2 2 2 3 3 2 2 3 3 3 2 2 2 2 2 2 1 1 1 1 2 2 4 4 2 2 5 9 9 5 3 4 5 8 7 7 7 7 6 2 0 2 4 4 2 1 0 1 2 5 7 5 6 5 4 5 6 4 3 1 8 8 4 6 8 6 5 8 10 11 8 6 10 10 11 12 8 5 11 16 15 10 11 12 11 15 18 18
2 2 2 2 3 3 3 3 2 2 1 1 1 2 3 4 4 3 3 2 2 3 4 5 3 2 5 9 8 1 1 1 4 7 6 7 7 7 6 3 0 2 4 4 3 1 1 1 3 4 5 4 4 4 3 4 3 4 2 3 8 5 4 7 7 4 4 9 13 12 9 10 10 7 12 18 15 10 8 12 16 12 11 12 12 14 18 18
1 2 1 2 3 4 4 2 1 2 2 1 1 3 3 3 3 4 4 3 2 3 5 6 5 3 4 7 8 5 4 3 4 6 6 6 6 6 4 3 1 1 4 5 4 2 1 2 4 6 6 4 3 3 6 6 5 5 2 3 4 2 6 8 6 4 5 9 11 11 10 10 10 6 8 18 22 17 11 11 15 13 13 15 16 17 18 17
1 1 1 1 2 2 3 2 1 2 2 1 1 4 3 2 1 3 4 2 1 2 4 6 5 2 2 5 6 5 6 6 6 6 6 6 6 5 3 3 3 1 3 5 5 2 1 3 6 6 5 3 3 3 4 6 6 5 3 4 4 4 7 7 4 4 6 9 9 10 9 7 9 5 6 17 22 18 15 13 13 13 14 17 18 19 20 19
1 1 1 0 1 2 3 3 3 3 2 1 1 3 2 1 1 2 3 2 2 3 5 5 3 1 2 5 6 5 6 7 6 6 5 5 5 4 3 3 5 4 1 3 5 4 3 4 6 5 3 5 6 4 4 4 2 2 6 7 7 6 7 6 5 5 6 8 9 8 5 4 6 3 8 17 20 17 15 14 14 14 16 18 19 21 22 22
2 2 1 1 2 3 4 5 4 4 3 3 1 1 2 2 2 2 2 2 3 5 6 4 2 2 4 6 4 3 5 6 5 5 5 5 4 3 3 4 5 5 4 1 3 5 4 4 6 6 7 7 7 4 4 3 2 7 12 11 9 7 6 5 5 6 5 6 7 4 2 4 5 1 7 14 17 18 16 15 15 16 18 19 20 22 24 24
2 1 1 1 2 4 5 5 4 4 4 4 3 1 0 1 1 1 1 1 4 5 6 6 4 3 3 4 3 4 4 5 4 4 3 4 4 3 3 4 5 5 5 2 2 4 4 6 9 8 5 6 6 6 6 6 7 12 15 11 6 4 4 3 5 5 3 2 4 2 1 3 3 2 9 12 15 18 17 17 17 18 20 21 22 24 25 26
2 2 1 2 2 3 3 3 2 2 3 4 4 4 3 1 1 1 1 1 3 5 4 5 5 4 4 5 5 4 4 4 3 3 2 3 2 2 3 4 5 6 7 4 2 6 7 9 10 6 6 9 6 5 6 7 8 10 10 4 4 5 0 4 5 4 2 1 3 2 3 4 4 9 12 9 13 17 17 18 20 21 22 23 24 26 27 26
2 2 2 2 2 2 0 1 1 1 1 1 2 2 3 2 2 2 2 2 2 5 3 5 6 4 3 4 5 4 3 4 3 3 2 2 3 4 4 4 5 7 8 6 4 6 8 8 6 6 11 10 5 5 7 6 7 5 4 2 2 7 4 4 3 2 2 1 0 3 4 6 6 14 15 10 13 17 20 22 23 24 24 25 27 28 28 27
3 2 1 2 1 1 2 2 2 2 2 1 1 1 1 2 3 3 3 3 4 4 1 4 7 6 2 3 4 4 4 4 4 3 0 2 5 6 4 2 3 6 7 7 6 6 7 6 6 9 12 9 9 11 6 5 5 2 1 2 2 2 5 4 1 1 2 3 4 5 3 8 8 12 15 15 17 19 23 25 25 26 26 27 28 29 30 29
2 0 0 1 2 3 3 2 2 3 2 2 3 3 3 3 2 3 3 4 5 3 3 6 7 4 3 3 3 4 4 3 3 2 1 3 6 6 2 1 3 5 6 7 8 8 9 8 7 9 10 10 12 8 4 4 4 3 0 3 2 1 5 7 3 1 2 4 6 5 3 9 9 9 11 17 18 20 25 26 27 28 28 29 30 30 31 30
1 2 2 2 2 2 1 0 2 3 4 4 4 5 5 3 3 3 4 5 4 3 5 4 3 2 2 2 1 3 4 2 2 2 2 4 7 6 2 0 2 4 4 6 7 8 9 8 9 10 8 7 7 4 4 4 4 4 1 2 3 1 3 6 3 1 2 2 4 5 4 7 7 5 7 14 19 22 25 27 28 29 30 31 31 32 32 32
3 3 3 2 1 1 2 1 1 3 5 6 6 6 6 4 3 3 4 4 2 4 4 1 2 3 2 2 1 3 6 4 2 1 3 5 6 6 3 1 1 3 3 4 5 5 5 6 7 6 5 4 3 4 4 3 4 3 2 1 3 2 2 4 4 2 3 3 3 4 5 11 11 8 9 15 20 23 26 29 31 31 32 32 32 33 34 34
3 3 3 2 0 2 3 3 4 4 4 5 5 6 8 6 3 3 3 3 2 4 3 2 3 2 1 4 3 3 6 6 2 1 3 5 7 5 3 2 2 1 1 2 2 4 4 5 5 2 4 5 4 5 3 3 4 2 2 1 3 2 2 4 4 2 3 2 4 3 6 15 15 12 17 19 21 26 30 32 32 32 33 33 34 35 35 36
3 3 2 3 5 7 7 6 4 4 5 6 5 6 6 6 3 2 3 3 3 2 1 3 5 1 1 6 5 2 4 6 4 0 3 5 6 5 3 2 3 2 1 1 3 6 4 4 5 2 0 1 1 4 6 6 6 4 4 3 3 3 4 5 5 4 1 2 6 7 9 14 13 11 15 19 23 28 31 31 29 30 32 33 35 37 38 39
4 3 5 7 8 7 6 5 5 6 8 8 7 6 5 4 2 2 2 1 2 3 1 2 4 3 1 7 6 2 1 5 6 2 3 5 5 5 3 2 2 2 4 0 3 5 5 4 2 3 5 4 4 5 5 5 6 5 4 3 4 4 5 5 5 4 2 2 7 6 7 14 15 10 14 18 20 24 27 26 28 31 32 34 36 38 39 39
4 4 6 6 4 6 7 6 6 7 9 7 4 4 3 3 2 2 4 5 6 5 3 1 2 2 2 6 8 3 3 2 6 4 3 5 6 5 4 2 1 3 4 2 2 3 5 4 3 6 6 5 3 5 5 5 5 4 4 2 2 3 6 5 2 4 1 1 5 3 7 16 16 10 12 13 13 19 28 27 29 33 33 35 37 38 40 38
4 4 4 2 4 7 7 7 6 7 7 6 3 3 5 6 4 3 3 3 4 4 4 3 3 3 3 4 7 5 2 2 3 3 2 4 4 3 3 2 4 1 4 3 2 4 5 2 4 4 7 7 5 4 4 4 5 3 3 1 3 3 5 5 2 3 3 2 5 5 8 17 19 10 9 13 15 20 27 29 31 31 31 34 36 37 38 38
5 5 4 4 5 6 7 7 7 6 5 5 5 4 7 8 6 5 3 1 2 2 2 3 3 4 3 4 6 4 1 0 3 5 5 1 3 1 0 3 4 1 4 4 1 1 1 3 3 5 8 7 5 4 6 5 3 2 3 2 4 3 2 4 4 4 3 3 5 6 6 13 16 9 5 10 15 18 20 23 27 28 30 34 35 35 35 37
5 5 5 5 6 6 6 7 7 5 3 3 4 3 5 6 5 5 3 0 1 1 1 1 3 3 3 4 5 3 3 4 4 7 8 3 3 3 2 4 4 3 3 2 5 5 2 3 2 6 5 5 3 2 5 3 2 2 4 5 4 3 2 4 4 6 6 3 2 5 5 7 8 6 5 4 6 13 16 18 24 28 32 34 34 34 35 36
5 5 5 6 6 6 7 6 6 5 2 2 3 3 4 5 6 7 3 1 2 2 1 1 3 3 3 5 4 1 2 4 6 8 8 6 4 2 3 3 3 2 2 1 5 4 1 2 3 5 4 5 3 2 2 4 2 4 4 6 5 2 1 3 5 7 5 4 2 3 4 5 5 5 7 4 4 7 9 12 22 29 29 30 33 34 34 34
5 6 6 7 7 8 8 6 6 6 4 3 4 4 5 6 7 7 3 3 3 3 0 0 1 3 3 5 4 1 1 2 5 8 6 5 4 2 3 2 2 2 4 3 3 2 1 1 2 4 4 5 3 2 4 4 3 3 4 4 5 4 4 5 4 3 2 3 3 3 0 5 6 6 8 4 5 8 6 8 19 26 27 29 32 32 31 31
5 6 7 8 9 9 9 7 7 6 4 4 5 5 6 6 6 5 4 4 3 2 0 1 0 2 2 5 5 1 1 4 2 6 5 4 4 1 2 2 1 2 3 3 1 1 2 3 3 4 5 4 2 3 4 6 5 2 3 3 3 3 4 4 1 2 3 3 4 2 3 3 6 7 5 3 5 9 8 8 13 22 27 28 28 28 27 27
7 7 8 9 10 11 10 9 8 6 4 4 4 4 5 5 5 3 3 3 3 0 1 1 2 2 4 5 5 2 1 3 1 3 5 4 3 1 1 2 5 3 1 3 3 4 2 3 3 4 4 2 3 4 6 7 2 5 4 2 2 2 2 2 4 3 1 3 5 3 2 1 6 6 3 3 4 7 9 9 10 16 21 21 22 23 22 23
7 8 9 9 10 11 11 9 8 6 5 4 3 4 4 4 4 3 4 1 2 1 1 1 2 2 8 4 3 4 3 3 3 4 4 3 4 2 2 2 7 5 3 3 4 3 1 2 4 6 4 4 5 3 6 7 2 3 4 3 3 3 3 3 4 2 2 2 5 5 1 1 5 7 3 2 2 6 8 7 8 13 15 15 17 18 18 20
8 8 9 10 10 11 11 9 8 6 4 3 2 3 2 2 2 5 2 2 1 1 2 2 2 5 8 3 3 6 4 3 6 5 2 3 4 4 6 5 5 5 2 3 2 3 1 0 1 3 3 4 4 2 4 6 2 1 3 3 3 4 4 3 2 3 2 3 6 5 1 2 3 6 4 3 4 5 5 5 8 11 13 15 16 17 18 19
8 9 10 10 10 11 10 9 7 5 3 2 1 1 1 2 4 5 1 3 0 2 2 2 2 4 6 2 2 5 4 4 8 6 3 3 4 5 5 3 1 3 3 4 2 3 3 1 1 1 2 3 4 2 1 1 2 2 3 3 3 3 3 3 4 3 1 4 5 4 2 2 2 7 5 5 6 4 5 5 6 9 15 17 17 17 19 20
9 10 11 11 10 10 10 8 6 3 1 1 1 0 1 2 2 1 3 3 2 2 1 1 2 3 4 2 1 4 3 3 7 5 2 2 3 3 2 2 1 2 4 2 2 5 3 3 2 1 2 3 3 0 3 3 3 3 3 4 4 4 4 3 4 1 2 5 3 1 2 1 5 9 9 10 11 8 9 12 13 14 18 20 18 19 21 22
11 11 11 11 10 10 9 7 4 1 2 2 2 1 4 4 1 3 2 3 1 1 1 1 2 1 1 2 2 3 2 1 4 4 1 1 3 2 1 3 2 0 2 2 1 4 3 3 2 1 1 2 3 2 1 1 2 2 1 2 2 1 3 4 4 3 4 4 2 2 2 3 5 7 9 12 13 12 12 16 18 18 19 21 22 22 23 24
12 13 12 11 10 9 8 6 3 2 3 3 2 3 5 1 4 3 2 4 2 2 2 1 2 2 1 1 2 2 0 1 2 3 2 2 2 1 2 2 0 2 2 1 0 0 1 4 1 2 1 0 2 2 3 3 3 1 2 4 3 3 2 4 4 3 6 5 3 3 1 3 3 4 6 10 12 14 15 15 17 19 21 23 24 23 24 26
13 13 12 11 9 8 7 4 2 3 4 4 4 5 2 3 4 2 2 4 1 2 1 1 2 3 3 2 2 1 1 1 2 3 2 1 1 2 1 2 1 2 3 1 2 1 1 5 3 1 1 1 1 1 2 4 3 0 2 4 1 4 4 2 3 4 2 4 4 2 3 5 4 6 7 6 8 12 12 13 14 17 19 20 21 23 24 27
13 12 11 9 8 8 6 3 3 4 6 5 5 3 4 4 2 3 3 1 0 1 1 3 3 2 4 4 3 3 2 1 2 3 1 1 2 3 2 2 1 2 3 2 2 1 1 4 3 3 2 3 2 1 1 2 1 1 2 2 3 3 5 2 2 1 3 2 4 2 3 5 4 7 7 6 6 7 6 6 9 13 16 17 21 24 26 29
13 11 9 8 8 8 4 2 3 5 6 5 4 2 5 3 2 3 2 1 1 2 2 2 2 1 2 3 3 4 3 2 2 3 1 2 2 3 2 1 1 2 2 2 2 1 1 4 4 1 1 2 2 1 3 3 3 3 2 4 2 2 4 3 1 4 3 2 5 1 4 5 3 5 7 8 7 7 6 7 10 14 16 18 22 26 29 31
11 9 8 7 7 6 2 1 3 6 5 4 1 4 3 2 2 2 2 1 1 2 3 1 1 0 2 1 3 3 3 3 2 2 1 2 1 3 3 1 1 1 0 2 0 1 2 2 6 1 1 3 3 2 2 4 3 3 3 2 2 2 1 1 1 1 1 3 5 4 4 3 4 4 5 5 5 7 8 8 9 12 16 20 25 29 33 36
9 7 5 5 5 4 1 2 5 6 4 3 2 3 1 1 1 1 3 1 1 1 1 2 1 1 2 3 2 2 2 2 1 1 1 1 1 2 3 1 2 1 1 2 1 1 2 0 4 2 1 3 3 1 2 1 3 3 1 1 2 2 3 1 1 2 2 3 4 5 5 3 6 6 3 5 8 7 8 8 7 11 17 23 27 32 36 38
8 5 3 3 4 2 1 3 5 4 3 2 4 2 1 2 1 2 3 1 1 1 1 2 1 0 2 3 2 1 1 1 2 1 2 1 2 1 1 1 2 2 1 1 1 0 2 1 3 4 3 1 1 2 5 5 2 2 1 1 1 1 1 1 1 2 3 2 2 3 7 6 4 4 5 7 9 7 7 7 7 14 23 28 31 34 37 40
7 3 2 4 4 1 1 2 3 3 2 1 2 1 1 1 1 1 2 2 1 1 1 2 3 2 2 2 2 2 1 1 2 2 2 2 1 1 1 1 2 3 1 1 1 0 1 2 3 3 3 3 4 3 3 5 5 4 4 4 3 3 3 0 3 1 2 2 4 2 8 8 2 4 6 6 6 6 7 8 10 19 28 32 35 37 38 40
5 2 3 5 3 2 1 2 3 3 2 2 1 1 1 1 0 1 2 3 1 0 1 1 2 2 2 2 1 2 2 1 2 2 2 3 3 2 0 1 2 3 3 1 2 2 1 3 1 4 5 4 4 2 1 2 4 4 2 2 3 4 5 4 4 3 0 2 2 3 5 6 1 3 5 4 3 7 13 14 16 24 30 33 36 38 39 41
5 4 5 5 3 3 1 2 3 3 1 1 1 1 2 1 1 1 1 2 1 0 0 1 2 2 2 2 1 2 3 2 3 3 3 3 2 2 1 2 2 2 2 0 1 0 1 2 1 4 5 3 3 3 3 2 3 1 1 1 3 2 3 5 5 3 2 3 2 1 6 6 1 2 4 3 5 13 21 23 23 27 31 33 35 37 39 41
8 7 5 4 3 3 3 1 1 3 3 1 2 1 2 2 2 2 1 3 2 1 1 1 2 2 1 1 1 2 3 1 2 2 1 2 2 2 0 2 2 1 1 0 1 1 1 1 1 3 7 6 5 5 5 4 1 2 3 1 2 4 5 3 2 2 2 5 7 4 9 8 2 4 8 10 12 15 22 28 30 30 32 34 36 39 41 42
8 6 4 3 3 2 2 2 2 2 1 1 2 2 1 1 2 3 2 2 3 3 1 1 1 2 1 1 1 1 1 0 2 1 2 1 3 1 2 1 1 1 2 1 1 1 1 1 1 0 3 5 6 6 4 2 1 2 2 2 3 4 5 3 1 2 3 4 6 5 9 11 8 10 15 15 13 14 21 29 34 35 35 36 38 41 43 43
5 2 3 3 2 0 1 1 2 2 2 1 1 2 0 0 2 3 3 2 2 3 2 1 2 2 1 1 0 1 2 0 1 1 1 2 3 2 2 1 1 1 2 2 2 2 1 1 2 5 6 7 8 7 2 1 3 6 6 5 5 4 5 4 3 2 4 2 2 7 10 14 16 15 15 13 13 14 17 24 31 35 37 37 38 40 41 42
2 1 2 2 2 2 3 3 2 2 2 3 1 1 1 2 2 1 3 3 2 3 2 1 2 2 2 2 1 1 2 1 2 1 2 3 3 2 1 1 1 1 2 2 1 3 3 2 4 6 8 10 11 10 5 2 5 10 10 8 5 5 5 6 6 10 4 2 6 10 7 9 14 15 13 14 15 14 15 22 30 34 35 36 36 38 39 38
2 2 2 1 2 1 2 3 3 3 3 2 1 1 0 1 2 2 3 2 1 3 2 1 2 4 5 4 2 0 1 2 1 3 2 1 3 3 2 1 1 1 2 2 1 3 4 3 4 3 6 11 11 11 9 6 7 8 9 11 7 6 8 10 13 14 5 2 12 15 11 11 14 16 15 15 16 16 20 28 34 36 34 35 37 38 37 36
3 2 2 2 3 2 1 2 1 3 3 2 1 1 1 2 4 4 2 1 1 2 3 2 5 4 4 3 2 1 2 1 2 4 2 1 2 1 2 1 1 1 2 2 1 2 4 3 3 2 5 11 11 11 9 6 6 6 8 10 8 8 11 11 13 13 7 9 16 18 17 16 14 14 15 17 22 25 27 31 35 36 34 35 38 36 34 37
3 3 2 2 2 1 1 1 1 3 1 1 0 2 2 4 5 4 3 3 2 1 3 3 4 2 3 3 3 3 6 5 2 3 3 2 2 2 2 2 2 2 2 1 1 1 2 2 1 3 3 9 9 7 5 3 5 7 9 10 7 6 7 7 8 8 6 9 13 13 13 12 10 11 14 21 27 27 25 29 34 37 37 36 35 33 35 40
4 4 3 1 1 0 1 0 2 3 1 1 2 2 2 4 5 3 2 4 4 3 4 5 3 2 2 2 4 7 6 4 3 4 4 4 4 4 3 3 5 4 1 1 0 1 2 2 2 5 3 7 4 5 7 7 6 5 8 9 5 2 3 4 5 6 6 6 9 8 6 6 7 12 17 22 24 22 22 26 30 36 41 37 30 30 36 41
5 5 4 2 2 1 0 1 2 2 1 2 3 3 2 3 4 2 1 3 3 2 4 5 4 2 1 2 5 7 5 3 4 5 3 5 6 5 4 5 6 5 4 3 1 1 3 2 1 3 1 6 4 6 8 9 6 3 4 4 2 3 3 3 4 6 7 5 5 5 5 7 10 13 16 18 18 18 21 25 29 35 37 33 30 34 40 41
Wind_Direction
29 39 52 49 46 55 61 66 83 108 118 123 124 123 124 125 127 126 125 119 120 124 118 107 94 88 86 89 87 80 74 63 51 90 98 62 50 53 50 58 77 96 115 137 146 142 114 58 72 94 103 93 77 74 75 73 73 79 91 87 133 178 196 180 178 190 163 167 182 185 187 154 155 166 147 131 139 148 159 182 188 200 210 206 213 211 191 187
16 28 43 43 38 50 65 71 81 112 129 127 125 128 134 137 142 142 141 133 128 127 129 117 93 86 81 86 86 78 71 62 57 71 65 41 29 43 42 50 78 115 135 146 152 141 84 51 65 87 96 85 65 68 78 53 53 75 98 98 181 201 193 169 170 181 167 156 172 190 198 183 179 168 156 154 151 147 150 170 173 187 198 204 212 202 195 200
3 21 36 40 32 42 69 76 82 111 139 135 125 129 131 128 133 131 146 193 198 181 175 157 101 81 62 53 42 30 19 17 23 36 40 24 8 17 19 23 82 156 163 165 160 111 71 52 66 83 85 78 62 71 69 43 45 67 97 99 219 208 187 171 165 174 186 180 161 169 186 190 185 169 167 176 166 181 203 186 180 196 207 209 208 201 201 207
350 20 35 37 37 48 87 94 96 114 135 138 138 139 133 122 115 100 120 185 205 209 210 209 145 45 15 354 331 311 326 350 10 16 16 8 359 357 359 9 93 188 183 176 163 103 62 50 75 82 77 68 50 66 53 32 47 77 95 148 200 171 139 175 164 158 173 180 167 161 168 191 186 178 187 170 150 248 232 208 205 217 218 213 208 208 208 211
343 22 39 41 54 68 101 113 114 122 134 141 163 188 213 240 233 226 245 237 213 217 231 232 239 326 340 342 332 288 297 354 356 1 2 359 354 345 348 356 285 205 195 183 178 148 38 48 101 78 71 60 35 59 45 33 76 73 15 165 153 144 137 164 159 149 167 173 165 157 164 195 187 193 208 188 175 231 229 217 217 228 229 222 221 218 214 216
346 38 49 57 71 74 88 114 137 155 174 206 268 278 279 272 260 243 239 247 238 250 257 246 253 296 319 344 1 351 163 57 341 351 1 358 352 344 343 333 272 208 208 186 190 231 265 164 119 82 72 55 29 63 49 20 91 89 18 116 131 142 147 155 168 185 195 177 167 166 178 187 180 211 219 207 213 225 231 217 213 226 228 223 229 227 223 224
10 52 65 81 81 75 76 90 157 205 223 227 310 321 319 305 281 242 227 233 255 277 276 268 271 282 313 353 24 48 90 80 357 356 1 358 356 349 342 330 345 225 215 198 218 249 195 181 135 102 88 70 64 78 50 41 82 103 108 135 127 134 143 157 192 213 201 192 184 175 176 180 181 209 221 215 224 233 240 219 211 224 221 216 223 229 232 234
25 60 73 91 77 60 54 29 311 264 256 215 339 344 350 349 279 219 209 203 275 327 317 300 287 264 296 350 9 24 42 29 5 6 2 1 3 350 338 345 6 358 214 214 231 235 201 185 152 119 87 75 108 96 56 58 54 75 128 157 127 127 152 167 197 189 188 195 190 177 172 184 193 209 235 224 227 231 231 219 215 222 220 217 223 231 234 234
21 55 42 349 349 358 351 320 297 274 262 242 330 5 19 54 138 178 172 151 78 34 0 329 313 271 292 331 343 3 10 358 3 15 6 7 7 351 356 15 21 28 34 221 226 229 226 177 164 156 127 118 113 85 57 64 15 85 126 138 129 131 150 160 169 153 162 176 174 177 180 186 191 230 258 235 228 225 222 220 220 223 222 220 225 234 235 237
359 39 59 329 329 332 321 303 289 268 248 231 220 28 42 75 102 142 151 122 74 55 30 15 351 305 301 317 339 24 351 341 4 12 8 15 10 6 27 33 29 28 26 341 233 227 215 185 164 145 127 120 105 66 42 64 123 123 115 111 113 134 153 160 172 157 153 168 177 197 225 197 173 171 256 236 222 220 220 220 221 222 223 224 229 234 236 238
343 9 44 336 333 322 308 296 290 271 242 221 210 224 232 70 52 125 158 104 68 51 37 40 31 12 2 354 49 68 339 333 8 0 12 25 19 28 47 48 41 38 35 22 221 198 188 168 150 136 117 119 105 68 62 86 113 120 117 102 75 109 163 188 177 175 162 173 221 252 263 210 171 206 243 235 219 219 221 222 222 222 223 226 232 235 236 239
334 346 353 340 339 325 305 291 292 267 235 219 220 239 243 268 324 288 253 146 48 21 17 25 18 18 26 27 56 60 345 344 3 343 17 40 60 79 84 79 64 61 51 41 144 154 148 150 147 130 117 132 124 72 82 102 111 111 109 108 356 25 38 217 176 186 205 286 286 331 309 248 203 224 235 232 222 220 221 224 226 224 225 228 232 236 237 240
340 345 335 333 337 328 308 94 73 83 109 182 220 250 254 266 254 259 271 244 348 0 16 21 9 352 353 23 41 36 6 11 354 331 16 86 125 126 117 100 72 62 50 46 107 139 141 150 150 120 121 127 121 112 114 102 106 103 70 93 345 6 330 232 159 192 199 243 194 70 301 265 233 234 233 232 228 219 219 224 226 225 226 229 233 236 238 240
341 344 330 347 2 129 123 98 76 66 58 58 29 14 337 286 245 256 276 274 311 337 4 354 350 345 7 54 43 28 21 22 356 328 22 134 149 151 139 88 39 41 37 45 83 121 122 131 142 119 112 111 117 120 100 51 73 96 14 36 56 1 288 276 2 189 160 192 167 100 282 261 271 259 239 236 232 221 223 227 227 228 228 232 234 237 241 242
339 354 106 79 110 125 116 96 63 44 45 40 23 6 346 321 269 263 265 291 313 319 312 321 331 348 60 75 49 35 24 17 4 346 143 149 166 171 163 352 6 25 35 51 74 104 117 130 134 105 95 106 116 110 40 12 27 36 356 316 345 171 267 304 337 153 155 189 174 131 260 265 278 277 242 230 228 222 227 231 229 230 232 234 237 239 243 246
144 158 165 150 120 112 112 63 29 32 50 49 28 358 334 312 299 286 261 292 327 337 325 330 347 6 59 51 23 27 19 9 21 52 129 150 174 184 181 230 348 8 38 68 79 105 125 128 110 91 93 107 106 86 48 28 351 5 62 262 275 210 282 313 345 81 79 120 187 197 241 276 270 265 232 218 223 222 225 234 232 233 236 236 239 241 245 249
132 155 179 189 250 308 297 298 35 56 65 54 30 8 355 341 314 306 278 281 320 358 341 322 343 355 29 16 306 10 22 21 14 70 140 154 172 178 171 195 313 349 43 93 97 105 118 115 110 94 75 72 69 87 65 347 300 328 14 269 255 235 261 303 315 343 38 74 240 225 231 259 261 272 255 224 221 220 223 233 234 235 238 239 242 243 247 250
123 148 178 211 300 54 69 80 83 73 60 39 19 2 358 359 331 302 296 268 281 332 332 301 339 357 26 11 10 5 17 18 8 127 156 166 173 179 189 262 279 310 17 121 83 65 86 91 104 95 29 27 30 83 115 231 217 236 262 250 293 290 240 260 274 300 25 12 263 246 250 261 266 273 264 241 222 219 226 235 236 238 240 241 243 245 249 251
94 126 128 110 94 83 74 66 51 9 339 327 327 330 339 354 349 300 281 267 278 308 279 331 3 118 215 3 6 341 15 24 15 167 181 174 181 202 229 276 260 283 20 162 3 29 70 72 76 103 7 352 44 125 161 186 167 173 194 187 229 272 267 244 255 264 57 320 266 239 248 266 271 269 264 247 221 219 231 237 239 241 242 243 244 247 250 252
59 86 112 111 93 65 42 18 348 330 323 308 302 314 324 338 349 340 337 350 76 104 143 349 31 91 62 10 3 309 340 21 11 349 205 195 202 218 244 284 277 21 39 100 330 14 56 69 103 197 206 204 205 164 138 136 134 135 142 177 213 236 273 257 267 277 183 262 262 233 254 273 270 259 259 247 219 219 232 236 240 241 243 244 246 250 253 255
56 81 117 116 63 14 1 353 341 336 337 330 311 318 345 358 8 33 49 69 83 88 82 47 42 36 21 10 6 344 246 324 1 339 246 217 211 220 260 304 50 40 7 320 290 2 50 92 192 221 197 170 168 146 115 104 106 107 142 204 255 226 257 257 256 286 306 312 268 280 309 288 279 264 250 234 205 219 227 227 236 240 242 246 247 252 256 260
65 83 106 74 0 355 353 350 344 340 354 20 42 62 55 48 56 50 45 82 93 89 75 53 40 22 3 346 359 360 255 257 352 344 288 226 210 224 266 33 78 79 346 355 339 5 42 140 231 205 151 111 76 94 95 91 98 88 118 158 280 246 270 293 307 316 349 324 284 336 332 291 287 281 243 216 207 227 229 227 236 240 243 247 250 255 259 264
61 67 58 25 13 6 2 2 353 344 5 45 57 71 63 50 49 30 15 107 114 99 81 44 36 25 16 1 357 1 13 63 351 8 14 242 190 85 46 84 76 63 7 16 139 96 50 249 242 153 132 103 65 51 67 78 96 125 136 151 262 273 314 296 310 331 317 264 278 317 317 285 289 298 269 229 224 239 240 236 242 244 246 251 254 259 263 266
49 50 42 31 23 9 4 6 2 358 9 47 42 51 47 32 21 360 344 40 305 252 145 24 5 2 2 3 353 2 63 61 17 9 17 45 110 54 65 97 77 62 2 346 142 138 208 246 129 109 93 91 101 38 78 106 307 270 189 191 231 255 227 235 297 332 314 305 292 308 307 281 294 313 303 288 252 252 250 246 249 248 248 254 258 261 264 267
36 30 27 22 12 1 357 354 0 5 356 8 3 2 7 358 354 345 342 56 329 287 173 318 357 12 352 351 343 318 64 52 36 15 14 36 56 58 82 91 85 107 244 223 117 109 210 206 139 106 57 68 125 236 191 173 293 306 238 209 192 176 268 282 332 351 344 340 345 8 340 290 308 307 275 310 340 279 255 247 253 252 251 253 256 261 265 269
22 13 9 5 357 353 349 341 346 355 359 342 324 327 334 333 347 346 2 58 335 293 214 226 5 11 355 360 354 193 340 2 34 18 11 23 24 107 122 51 63 139 197 170 112 135 165 120 127 122 96 75 82 257 232 157 111 317 260 184 137 78 2 318 332 9 343 289 298 58 73 271 305 293 269 308 321 292 280 253 256 258 257 254 256 262 268 272
4 359 351 351 351 346 343 336 331 336 348 339 325 317 313 327 345 339 3 40 340 289 43 243 253 9 4 8 4 91 303 317 5 16 19 28 12 133 190 290 77 138 181 144 48 251 147 98 79 95 98 92 88 249 216 136 117 256 237 123 63 1 311 282 196 185 243 282 313 32 155 254 295 275 273 331 309 296 293 269 260 259 258 258 261 266 270 275
345 342 337 340 343 340 339 334 325 322 320 321 332 320 312 330 331 328 60 60 320 328 48 313 140 60 8 4 12 60 355 336 14 354 10 34 11 66 219 236 167 164 133 143 238 268 158 170 188 144 116 164 211 214 179 141 128 249 211 105 10 304 250 186 146 186 298 356 313 298 142 221 276 271 311 355 310 299 287 270 260 257 259 263 265 268 273 279
334 329 328 331 333 334 335 330 320 312 304 304 327 319 321 335 323 10 81 106 307 76 55 349 160 340 345 353 18 30 31 20 28 347 360 43 10 25 93 121 136 128 55 110 189 243 201 211 201 155 151 214 219 200 168 160 186 235 163 91 59 75 72 86 116 139 38 4 265 258 153 178 275 279 313 1 282 266 266 266 264 260 262 265 268 274 279 284
326 323 322 323 327 329 328 325 317 305 295 291 311 322 350 356 21 58 53 252 308 10 323 342 256 311 345 5 359 10 38 14 1 1 23 63 31 54 104 112 111 117 33 31 126 230 285 36 224 168 181 195 169 139 173 183 243 10 110 63 40 50 56 63 75 90 66 292 256 253 239 98 303 282 250 214 225 214 220 264 275 268 268 270 276 283 287 290
326 323 320 321 324 326 325 324 317 303 288 272 285 339 25 10 66 92 222 246 81 343 342 11 318 349 17 43 326 354 16 358 358 16 23 25 28 39 80 107 59 64 4 358 354 307 347 87 245 227 198 147 113 79 35 226 313 32 70 41 7 346 29 34 358 48 92 265 259 267 301 109 227 267 252 242 258 218 188 233 261 266 275 280 286 290 294 295
328 324 322 322 322 324 326 324 319 303 263 194 149 319 79 36 29 165 258 307 1 321 349 9 327 26 27 10 350 335 332 344 6 37 58 19 30 20 49 168 209 2 336 312 317 328 312 226 273 6 188 159 127 59 353 357 25 50 48 49 27 338 1 358 314 313 216 243 243 281 320 198 230 254 261 264 269 253 225 236 249 260 273 282 290 295 298 297
328 325 325 324 323 325 326 324 321 268 208 159 140 39 70 78 248 232 274 327 336 323 27 19 327 30 2 338 344 320 298 293 1 30 114 76 47 7 280 196 176 11 296 253 328 347 331 292 331 62 220 192 147 160 279 303 41 44 55 99 100 31 6 308 284 294 278 263 257 289 294 277 279 275 252 245 256 261 251 252 259 265 272 281 290 295 299 300
325 326 325 323 324 322 322 320 302 204 179 157 124 61 64 94 239 226 280 272 269 359 28 46 341 352 41 358 300 300 339 299 347 20 7 28 46 328 292 269 221 90 109 119 285 75 325 297 279 148 254 309 142 172 172 148 90 76 159 128 143 156 168 261 246 253 286 293 296 303 254 216 261 283 243 237 258 274 274 270 271 273 275 280 287 294 300 303
323 325 325 324 325 319 320 312 252 183 170 160 84 68 115 237 250 211 248 259 287 350 317 42 49 24 351 332 311 358 101 286 331 26 8 13 171 209 234 243 243 105 118 164 264 157 195 268 270 331 324 84 124 221 128 99 80 232 135 106 166 180 156 212 209 192 272 316 299 267 228 218 233 274 282 279 277 280 283 279 277 279 283 286 289 296 303 306
320 323 324 324 324 322 323 293 205 171 175 152 71 71 194 227 241 186 206 245 47 200 290 350 39 42 328 317 332 3 47 285 329 4 336 261 213 197 200 228 197 131 137 168 226 159 24 280 298 2 4 62 84 221 73 72 161 140 117 181 222 174 119 111 265 12 66 309 279 234 251 287 313 294 305 352 336 315 325 317 304 300 300 298 297 303 308 310
318 321 324 321 324 331 326 258 178 176 182 134 94 210 220 219 199 187 177 129 190 142 86 359 345 39 297 304 313 324 347 318 328 356 294 273 251 178 179 243 182 157 161 160 233 210 144 279 300 29 74 17 57 124 42 48 115 119 177 220 214 109 88 97 287 342 40 261 273 255 252 287 332 297 319 2 347 325 331 330 322 315 310 307 308 312 314 315
316 318 315 312 325 338 334 203 166 173 163 108 120 242 221 189 208 194 173 155 174 84 89 168 254 193 186 245 285 287 324 312 324 9 281 277 289 162 145 174 163 34 21 127 230 278 122 288 304 2 171 311 6 87 9 13 65 120 181 189 111 149 243 66 134 280 322 281 285 285 276 261 206 238 303 333 315 305 310 316 317 310 309 312 314 317 319 320
316 315 311 315 329 343 28 133 163 164 131 100 227 248 223 226 253 166 178 188 117 100 127 205 248 25 170 184 231 264 321 281 255 26 238 256 290 179 134 144 172 30 6 120 136 245 107 109 287 285 231 307 3 108 234 307 40 53 88 22 42 153 189 176 158 185 195 279 292 307 314 273 214 211 229 276 285 293 301 306 301 297 308 314 315 318 320 322
322 314 299 319 335 347 87 137 154 142 105 149 209 215 326 288 250 171 185 195 134 142 208 208 174 250 224 208 225 247 20 204 183 175 236 251 283 252 101 112 155 140 14 50 98 203 71 113 256 293 319 298 265 210 201 184 146 88 131 238 312 111 165 214 243 153 145 207 236 297 298 273 222 192 204 262 285 284 283 288 291 303 313 317 318 320 322 323
332 325 296 317 331 317 150 125 102 80 97 184 219 208 336 319 215 207 197 187 208 226 198 174 161 185 215 216 253 225 157 177 183 198 253 239 239 289 5 89 148 143 110 55 63 279 75 156 216 291 310 245 239 247 198 179 166 153 179 206 189 147 122 63 284 286 110 195 184 198 282 279 205 177 218 254 270 274 291 296 299 308 315 318 320 323 324 323
340 336 316 323 314 234 158 83 46 48 105 172 264 224 239 314 223 217 204 199 269 303 163 144 163 178 177 181 219 187 176 208 185 200 246 218 209 242 221 122 145 150 128 110 258 236 136 114 166 271 261 241 261 314 73 163 150 135 179 197 154 137 130 157 247 270 226 233 160 122 276 283 160 190 230 229 248 304 319 319 313 314 318 321 322 323 324 323
334 314 309 317 295 226 192 17 358 2 48 182 264 216 208 229 178 172 210 213 240 15 309 282 191 192 216 202 157 171 200 210 183 193 229 227 242 280 205 147 140 150 119 36 284 155 119 89 18 283 286 312 328 1 36 58 92 113 261 146 139 155 139 159 192 193 210 226 139 97 276 277 292 248 240 250 321 330 329 327 324 320 321 323 323 323 324 324
327 312 298 307 303 237 201 190 306 301 295 315 5 303 234 231 206 195 222 225 219 184 168 238 206 200 216 150 114 186 205 208 213 217 214 217 250 324 131 154 146 122 77 117 114 85 235 233 53 328 322 334 342 353 352 348 41 215 253 230 163 128 99 117 171 121 267 225 165 181 267 266 267 316 311 320 333 335 330 329 329 323 321 324 326 325 326 326
333 318 294 298 311 240 194 181 162 183 246 310 342 305 261 262 233 219 226 236 219 193 181 271 195 162 126 93 75 249 222 258 269 295 21 259 257 358 60 155 169 41 29 68 97 97 219 219 119 285 297 300 303 311 308 297 293 257 235 219 208 152 138 173 168 124 246 234 163 179 259 275 298 318 315 319 330 331 328 330 327 322 321 325 326 326 327 328
345 331 318 326 330 30 127 140 135 139 155 171 300 303 186 251 265 238 226 235 226 209 217 245 159 125 63 112 128 279 267 349 22 356 347 264 266 349 51 77 51 42 59 71 59 67 88 262 209 193 209 238 259 267 250 84 297 282 273 239 207 189 173 135 95 205 221 221 216 226 251 281 296 302 305 316 327 327 326 326 320 317 320 324 325 325 325 327
352 276 312 334 334 13 69 68 56 87 150 172 210 253 217 261 309 297 217 221 229 219 223 228 177 171 179 186 189 259 262 22 49 268 247 238 260 318 29 134 62 53 95 92 58 85 86 300 246 203 223 246 261 273 288 323 274 269 274 266 222 185 169 151 203 238 221 78 279 262 251 270 285 294 306 317 322 322 319 316 313 312 317 321 322 323 325 328
340 274 275 259 272 313 64 15 9 87 121 143 171 162 235 280 296 251 213 216 241 212 206 292 254 214 191 180 149 176 282 348 306 244 250 265 291 341 14 53 76 76 107 104 84 112 122 251 245 191 250 267 270 277 276 268 262 255 263 271 254 192 182 193 228 244 220 200 266 275 279 278 287 300 308 311 313 312 312 311 311 312 317 322 324 325 328 332
310 289 269 234 242 225 204 304 330 123 114 77 115 186 181 203 241 245 196 126 335 235 185 236 271 250 207 183 133 153 233 264 294 270 228 190 273 314 340 318 121 89 82 96 29 115 141 238 241 153 285 280 270 273 271 256 265 270 266 268 256 220 210 214 240 255 245 242 260 275 286 286 288 292 295 303 308 310 311 312 313 316 322 326 325 326 332 336
290 286 269 231 238 204 127 345 98 123 89 38 188 241 184 182 226 253 189 173 242 261 172 213 266 260 198 179 160 207 215 181 200 256 188 167 276 220 215 227 161 91 24 74 34 89 160 261 266 103 316 284 271 283 290 253 258 277 282 278 264 246 237 228 246 262 256 253 261 276 287 285 283 287 296 308 313 315 316 317 318 320 323 324 325 330 336 336
282 284 289 250 226 132 52 320 109 107 22 299 208 232 209 202 218 231 225 210 206 197 187 191 187 106 94 154 195 238 246 202 216 246 203 203 241 220 216 212 159 132 107 183 79 107 157 269 1 64 348 283 287 345 322 302 291 287 297 296 275 213 221 220 227 229 219 247 278 293 293 282 295 308 310 311 314 316 315 317 320 320 319 322 327 333 336 333
290 284 280 260 266 283 193 101 72 71 277 236 198 203 238 243 216 174 284 259 202 200 224 199 164 117 66 197 220 251 277 267 268 277 253 242 245 236 237 214 172 152 163 166 126 111 146 150 15 54 314 274 310 343 313 314 334 327 309 303 241 218 253 256 268 253 219 224 284 292 278 289 308 316 315 314 316 317 315 317 318 314 313 321 331 334 333 332